Location: Congrier
(47.8099°N, 1.1170°W)
Time: 08:49:27
(UTC+00:00)

Nadezhda 2 Rocket - Pass Details

Date: 28 January 2023
Orbit: 947 x 1011 km, 83.0° (Epoch: 23 March)

Event Time Altitude Azimuth Distance (km) Brightness Sun altitude
Rises 19:19:18 0° 350° (N) 3,697 7.6 -23.6°
Reaches altitude 10° 19:21:50 10° 351° (N) 2,735 6.9 -24.0°
Maximum altitude 19:28:07 87° 261° (W) 972 4.4 -25.1°
Drops below altitude 10° 19:34:15 10° 175° (S) 2,677 6.7 -26.1°
Sets 19:36:43 0° 175° (S) 3,613 7.4 -26.5°
